Flag for Comoros Weather past 2 weeks in Moroni, Comoros

Now
75 °F

Passing clouds.


Feels Like: 75 °F
Forecast: 76 / 84 °F
Wind: 3 mph from Southeast

Location: Hahaya International Airport

Current Time: Jul 29, 2014 at 3:34:55 AM

Latest Report: Jul 29, 2014 at 2:00 AM


Visibility: N/A

Pressure: 30.07 "Hg

Humidity: 89%

Dew point: 72 °F

Location of MoroniLocation

Historic Weather in Moroni — Graph

°F

Moroni temperature yesterday

Maximum temperature yesterday: 84 °F (at 12:00 PM)
Minimum temperature yesterday: 70 °F (at 6:00 AM)
Average temperature yesterday: 79 °F

Past Weeks' High & Low Weather Summary

 TemperatureHumidityPressure
High88 °F (Jul 25, 2:00 PM)100% (Jul 26, 10:00 PM)30.12 "Hg (Jul 26, 10:00 PM)
Low66 °F (Jul 15, 6:00 AM)46% (Jul 17, 11:00 AM)29.98 "Hg (Jul 18, 4:00 PM)
Average79 °F72%30.06 "Hg
* Reported Jul 14 6:00 AM — Jul 29 2:00 AM, Moroni, Weather by CustomWeather, © 2014

Note: Actual official high and low records may vary slightly from our data, if they occured in-between our weather recording intervals... More about our weather records

Advertising

Moroni weather history for previous 24 hours

 ConditionsComfort  
Time TempWeatherWind HumidityBarometerVisibility
2:00 AM
Jul 29
75 °FPassing clouds.3 mph89%30.07 "HgN/A
1:00 AM75 °FPassing clouds.6 mph83%30.09 "HgN/A
12:00 AM75 °FPassing clouds.3 mph83%30.09 "HgN/A
10:00 PM
Jul 28
77 °FPassing clouds.No wind83%30.09 "HgN/A
9:00 PM77 °FPassing clouds.2 mph83%30.09 "HgN/A
8:00 PM79 °FPassing clouds.2 mph79%30.09 "HgN/A
7:00 PM79 °FPassing clouds.10 mph84%30.07 "HgN/A
6:00 PM81 °FPassing clouds.17 mph79%30.07 "HgN/A
5:00 PM81 °FPassing clouds.17 mph79%30.07 "HgN/A
4:00 PM82 °FPassing clouds.20 mph74%30.07 "HgN/A
3:00 PM82 °FScattered clouds.20 mph74%30.07 "HgN/A
1:00 PM84 °FPartly sunny.12 mph62%30.09 "HgN/A
12:00 PM84 °FScattered clouds.10 mph66%30.12 "HgN/A
11:00 AM82 °FPassing clouds.8 mph66%30.12 "HgN/A
10:00 AM81 °FPassing clouds.9 mph70%30.12 "HgN/A
9:00 AM79 °FScattered clouds.5 mph79%30.12 "HgN/A
7:00 AM70 °FPassing clouds.9 mph88%30.09 "HgN/A
6:00 AM70 °FPassing clouds.2 mph94%30.07 "HgN/A
Weather by CustomWeather, © 2014

See weather overviewHow to use our weather pages